AEE509 EDDH-LGTS

Flight info

Callsign AEE509
Flight time N/A
Altitude 37000
Route AMLUH2G/33 AMLUH M852 DENIX DCT ZUCKA DCT SODRO DCT RUDNO DCT LAMSI DCT LURID DCT PODOB DCT MEDUX UM867 KOGAT DCT TALAS N130 ALIKO
Aircraft A320/M-SDE2GHIJ1RTWY/SB1

Departure

Time 2026-05-04 15:31
Airport Hamburg Helmut Schmidt Airport (EDDH)

Arrival

Time N/A
Airport Thessaloniki Macedonia International Airport (LGTS)
Time Latitude Longitude Altitude Speed Heading
2026-05-04 14:58 53.62889 10.00220 49 ft 0 kts 122°
2026-05-04 15:24 53.62892 10.00211 47 ft 4 kts 122°
2026-05-04 15:24 53.62919 10.00144 45 ft 4 kts 137°
2026-05-04 15:25 53.62940 10.00127 47 ft 4 kts 201°
2026-05-04 15:25 53.62946 10.00131 43 ft 0 kts 212°
2026-05-04 15:28 53.62928 10.00112 47 ft 6 kts 213°
2026-05-04 15:29 53.62887 10.00066 48 ft 8 kts 216°
2026-05-04 15:30 53.62870 9.99743 45 ft 8 kts 332°
2026-05-04 15:30 53.64069 9.98707 51 ft 154 kts 333°
2026-05-04 15:31 53.66137 9.96993 1355 ft 169 kts 332°
2026-05-04 15:31 53.67195 9.96082 2191 ft 172 kts 330°
2026-05-04 15:32 53.71167 9.94858 4092 ft 217 kts 11°
2026-05-04 15:32 53.73398 9.98310 5658 ft 237 kts 62°
2026-05-04 15:33 53.74057 10.04004 6860 ft 264 kts 103°
2026-05-04 15:34 53.71324 10.12515 8922 ft 288 kts 124°
2026-05-04 15:34 53.70277 10.15433 9687 ft 295 kts 123°
2026-05-04 15:34 53.67597 10.20797 10485 ft 318 kts 155°
2026-05-04 15:35 53.63204 10.23125 11230 ft 340 kts 169°
2026-05-04 15:35 53.60898 10.24101 11913 ft 344 kts 169°
2026-05-04 15:35 53.58565 10.25113 12616 ft 348 kts 169°
2026-05-04 15:36 53.53817 10.27248 13909 ft 357 kts 168°
2026-05-04 15:36 53.51411 10.28351 14525 ft 359 kts 168°
2026-05-04 15:36 53.48994 10.29460 15153 ft 361 kts 168°
2026-05-04 15:37 53.46556 10.30577 15746 ft 364 kts 169°
2026-05-04 15:37 53.44099 10.31701 16333 ft 367 kts 169°
2026-05-04 15:37 53.41631 10.32827 16922 ft 369 kts 169°
2026-05-04 15:37 53.39140 10.33954 17515 ft 371 kts 169°
2026-05-04 15:38 53.36633 10.35083 18090 ft 374 kts 169°
2026-05-04 15:38 53.34110 10.36215 18598 ft 376 kts 169°
2026-05-04 15:38 53.31575 10.37352 19094 ft 378 kts 170°
2026-05-04 15:38 53.29023 10.38496 19581 ft 380 kts 170°
2026-05-04 15:39 53.26491 10.39630 20046 ft 383 kts 170°
2026-05-04 15:39 53.23910 10.40783 20499 ft 386 kts 170°
2026-05-04 15:39 53.18688 10.43114 21415 ft 391 kts 170°
2026-05-04 15:40 53.16048 10.44290 21860 ft 393 kts 170°
2026-05-04 15:40 53.13391 10.45455 22304 ft 395 kts 172°
2026-05-04 15:40 53.10704 10.46404 22757 ft 395 kts 175°
2026-05-04 15:40 53.07987 10.47237 23164 ft 398 kts 175°
2026-05-04 15:41 53.05248 10.48082 23591 ft 401 kts 175°
2026-05-04 15:41 53.02501 10.48935 23968 ft 402 kts 175°
2026-05-04 15:41 52.99746 10.49792 24358 ft 403 kts 175°
2026-05-04 15:41 52.96984 10.50651 24728 ft 405 kts 175°
2026-05-04 15:42 52.94210 10.51511 25098 ft 406 kts 175°
2026-05-04 15:42 52.91423 10.52374 25464 ft 408 kts 175°
2026-05-04 15:42 52.88635 10.53236 25798 ft 409 kts 175°
2026-05-04 15:42 52.85832 10.54102 26150 ft 410 kts 175°
2026-05-04 15:43 52.83017 10.54970 26488 ft 411 kts 175°
2026-05-04 15:43 52.80201 10.55837 26812 ft 413 kts 175°
2026-05-04 15:43 52.77372 10.56707 27122 ft 414 kts 175°
2026-05-04 15:43 52.74528 10.57580 27425 ft 416 kts 175°
2026-05-04 15:44 52.71687 10.58451 27738 ft 417 kts 176°
2026-05-04 15:44 52.68862 10.59316 28004 ft 418 kts 176°
2026-05-04 15:44 52.65998 10.60192 28280 ft 420 kts 175°
2026-05-04 15:44 52.63122 10.61070 28550 ft 421 kts 175°
2026-05-04 15:45 52.60233 10.61951 28793 ft 422 kts 176°
2026-05-04 15:45 52.57338 10.62832 29025 ft 424 kts 175°
2026-05-04 15:45 52.54432 10.63714 29263 ft 425 kts 175°
2026-05-04 15:45 52.51515 10.64599 29488 ft 427 kts 175°
2026-05-04 15:46 52.48586 10.65487 29722 ft 428 kts 175°
2026-05-04 15:46 52.45690 10.66364 29946 ft 429 kts 175°
2026-05-04 15:46 52.42755 10.67251 30151 ft 430 kts 175°
2026-05-04 15:46 52.39805 10.68141 30315 ft 432 kts 175°
2026-05-04 15:47 52.36838 10.69036 30495 ft 434 kts 175°
2026-05-04 15:47 52.33862 10.69932 30680 ft 436 kts 175°
2026-05-04 15:47 52.30877 10.70830 30865 ft 437 kts 175°
2026-05-04 15:47 52.27881 10.71730 31076 ft 438 kts 175°
2026-05-04 15:48 52.24872 10.72634 31309 ft 438 kts 175°
2026-05-04 15:48 52.21875 10.73533 31561 ft 438 kts 175°
2026-05-04 15:48 52.15881 10.75327 32026 ft 438 kts 175°
2026-05-04 15:49 52.12882 10.76223 32260 ft 438 kts 175°
2026-05-04 15:49 52.09881 10.77118 32463 ft 438 kts 175°
2026-05-04 15:49 52.06883 10.78011 32682 ft 438 kts 175°
2026-05-04 15:49 52.03880 10.78903 32888 ft 438 kts 175°
2026-05-04 15:50 52.00922 10.79781 33090 ft 438 kts 175°
2026-05-04 15:50 51.97921 10.80671 33290 ft 438 kts 175°
2026-05-04 15:50 51.94919 10.81560 33490 ft 438 kts 175°
2026-05-04 15:50 51.91918 10.82448 33680 ft 438 kts 175°
2026-05-04 15:51 51.88915 10.83335 33860 ft 438 kts 175°
2026-05-04 15:51 51.85912 10.84220 34030 ft 438 kts 175°
2026-05-04 15:51 51.82914 10.85103 34199 ft 438 kts 175°
2026-05-04 15:51 51.79926 10.85982 34374 ft 437 kts 175°
2026-05-04 15:52 51.76936 10.86860 34524 ft 436 kts 175°
2026-05-04 15:52 51.73945 10.87736 34704 ft 436 kts 175°
2026-05-04 15:52 51.70966 10.88646 34865 ft 437 kts 173°
2026-05-04 15:52 51.68015 10.89900 35018 ft 440 kts 168°
2026-05-04 15:53 51.65122 10.91571 35162 ft 443 kts 163°
2026-05-04 15:53 51.62309 10.93642 35288 ft 446 kts 159°
2026-05-04 15:53 51.59536 10.95864 35445 ft 445 kts 159°
2026-05-04 15:53 51.56759 10.98057 35571 ft 444 kts 159°
2026-05-04 15:54 51.53984 11.00238 35688 ft 444 kts 159°
2026-05-04 15:54 51.51205 11.02418 35797 ft 444 kts 159°
2026-05-04 15:54 51.48427 11.04598 35925 ft 444 kts 159°
2026-05-04 15:54 51.45650 11.06775 36035 ft 444 kts 159°
2026-05-04 15:55 51.42876 11.08949 36154 ft 443 kts 159°
2026-05-04 15:55 51.40140 11.11090 36263 ft 443 kts 159°
2026-05-04 15:55 51.34601 11.15416 36453 ft 443 kts 159°
2026-05-04 15:56 51.29044 11.19745 36640 ft 443 kts 159°
2026-05-04 15:56 51.23503 11.24049 36819 ft 443 kts 159°
2026-05-04 15:57 51.17993 11.28317 36962 ft 443 kts 159°
2026-05-04 15:57 51.12450 11.32599 36963 ft 442 kts 159°
2026-05-04 15:58 51.06907 11.36871 36966 ft 443 kts 159°
2026-05-04 15:58 51.01359 11.41135 36963 ft 443 kts 159°
2026-05-04 15:59 50.95795 11.45399 36963 ft 443 kts 159°
2026-05-04 15:59 50.90240 11.49646 36962 ft 443 kts 159°
2026-05-04 16:00 50.84691 11.53877 36960 ft 443 kts 159°
2026-05-04 16:00 50.79166 11.58078 36963 ft 442 kts 159°
2026-05-04 16:01 50.73614 11.62289 36969 ft 442 kts 159°
2026-05-04 16:01 50.68065 11.66485 36961 ft 442 kts 159°
2026-05-04 16:02 50.62517 11.70670 36960 ft 442 kts 159°
2026-05-04 16:03 50.54194 11.76929 36962 ft 442 kts 159°
2026-05-04 16:03 50.48646 11.81087 36960 ft 442 kts 159°
2026-05-04 16:04 50.43020 11.84961 36964 ft 440 kts 162°
2026-05-04 16:04 50.34550 11.90424 36965 ft 440 kts 162°
2026-05-04 16:05 50.28882 11.94081 36960 ft 441 kts 162°
2026-05-04 16:06 50.21322 11.98940 36960 ft 441 kts 162°
2026-05-04 16:07 50.09984 12.06195 36960 ft 442 kts 161°
2026-05-04 16:08 49.98595 12.13447 36969 ft 442 kts 161°
2026-05-04 16:09 49.84333 12.22474 36985 ft 443 kts 161°
2026-05-04 16:10 49.72928 12.29650 36983 ft 444 kts 161°
2026-05-04 16:11 49.61474 12.36822 36974 ft 444 kts 161°
2026-05-04 16:12 49.44279 12.47519 36951 ft 444 kts 161°
2026-05-04 16:13 49.33169 12.55700 36941 ft 450 kts 147°
2026-05-04 16:14 49.24040 12.68992 36933 ft 454 kts 137°
2026-05-04 16:16 49.12920 12.86135 36925 ft 454 kts 137°
2026-05-04 16:17 49.01806 13.03181 36935 ft 455 kts 137°
2026-05-04 16:18 48.92857 13.16821 36934 ft 455 kts 137°
2026-05-04 16:19 48.81648 13.33805 36922 ft 455 kts 137°
2026-05-04 16:20 48.70427 13.50693 36926 ft 456 kts 137°
2026-05-04 16:22 48.58477 13.66352 36915 ft 454 kts 144°
2026-05-04 16:23 48.43553 13.83893 36897 ft 453 kts 144°
2026-05-04 16:25 48.28603 14.01283 36880 ft 453 kts 144°
2026-05-04 16:26 48.11164 14.21400 36882 ft 453 kts 144°
2026-05-04 16:28 47.98640 14.35738 36906 ft 454 kts 144°
2026-05-04 16:29 47.81091 14.55679 36935 ft 455 kts 144°
2026-05-04 16:31 47.68472 14.69912 36953 ft 455 kts 144°